[[{"header":{"parameterUnit":"m.s-1","parameterCategory":1,"la1":30.2991,"la2":30.254,"lo1":-89.0895,"lo2":-89.0444,"dy":0.0017,"dx":0.0017,"nx":28,"ny":28,"refTime":"2024-02-15T09:00:00:Z","depth":0,"parameterNumber":2,"parameterNumberName":"U-component_of_WINDS"},"data":[0,0,0,0,0,0,0,0,0,0,0,0,0,0,0,0,0,0,0,0,0,0,0,0,0,0,0,0,0,0,0,0,0,0,0,0,0,0,0,0,0,0,0,0,0,0,0,0,0,0,0,0,0,0,0,0,0,0,-1.2232,-1.2233,0,-1.2324,-1.2325,-1.2326,-1.2316,-1.2315,-1.2313,-1.2312,-1.241,-1.2413,-1.2417,0,0,0,0,0,0,0,0,0,0,0,0,0,-1.2051,-1.2055,-1.2232,-1.2233,-1.2234,-1.2324,-1.2325,-1.2326,-1.2316,-1.2315,-1.2313,-1.2311,-1.2408,-1.2413,-1.2418,0,0,0,0,0,0,0,0,0,0,0,0,0,-1.2135,-1.2056,-1.2232,-1.224,-1.2242,-1.2323,-1.2325,-1.2326,-1.2317,-1.2314,-1.2312,-1.231,-1.2407,-1.2412,-1.2418,-1.2499,0,0,-1.2436,-1.2439,0,0,0,0,0,0,0,0,-1.213,-1.2142,-1.2238,-1.224,-1.2241,-1.2306,-1.2297,-1.2384,-1.2317,-1.2288,-1.2312,-1.2309,-1.2377,-1.2385,-1.2408,-1.2503,-1.2508,-1.2437,-1.2441,-1.2443,-1.2445,0,0,0,0,0,0,0,-1.2125,-1.2138,-1.2268,-1.2239,-1.2241,-1.224,-1.225,-1.2313,-1.2344,-1.2291,-1.229,-1.2301,-1.2378,-1.2402,-1.241,-1.2509,-1.2437,-1.2442,-1.2446,-1.2448,-1.2676,-1.2678,0,0,0,0,0,0,-1.2116,-1.2133,-1.2265,-1.2271,-1.2179,-1.2245,-1.2256,-1.2288,-1.2343,-1.235,-1.2303,-1.23,-1.2393,-1.2403,-1.2413,-1.2511,-1.2443,-1.2449,-1.2452,-1.2673,-1.2676,-1.2679,0,0,0,0,0,0,-1.2112,-1.2128,-1.2262,-1.2202,-1.2219,-1.2251,-1.2287,-1.2291,-1.2315,-1.2352,-1.2358,-1.2321,-1.2391,-1.2405,-1.2477,-1.2514,-1.2451,-1.2457,-1.267,-1.2674,-1.2677,-1.2708,0,0,0,0,0,0,-1.2107,-1.2127,-1.2157,-1.2203,-1.2222,-1.2324,-1.2289,-1.2294,-1.2324,-1.2322,-1.2371,-1.2378,-1.2391,-1.2468,-1.2483,-1.2521,-1.2461,-1.2667,-1.2672,-1.2676,-1.2704,-1.2712,-1.2719,0,0,0,0,0,-1.2101,-1.2163,-1.2159,-1.2175,-1.226,-1.2326,-1.2337,-1.235,-1.2327,-1.2359,-1.2383,-1.2376,-1.2508,-1.2476,-1.2493,-1.2533,-1.2665,-1.2671,-1.2676,-1.27,-1.271,-1.2719,0,0,0,0,0,0,-1.2122,-1.2169,-1.2165,-1.2243,-1.228,-1.2324,-1.2364,-1.236,-1.2406,-1.2402,-1.2417,-1.2428,-1.2501,-1.2524,-1.2488,-1.2614,-1.2583,-1.2593,-1.2596,-1.2606,-1.2614,-1.2607,-1.2466,0,0,0,0,0,-1.2136,-1.2184,-1.2222,-1.2288,-1.2307,-1.2332,-1.2361,-1.2367,-1.2407,-1.2423,-1.2453,-1.2492,-1.2543,-1.2576,-1.2624,-1.2707,-1.2717,-1.2743,-1.275,-1.2757,-1.2765,-1.281,-1.2822,-1.2697,-1.2697,-1.2697,0,0,-1.2165,-1.2196,-1.2226,-1.2293,-1.2322,-1.2373,-1.2345,-1.24,-1.2438,-1.2432,-1.2502,-1.2525,-1.257,-1.2648,-1.2684,-1.267,-1.2801,-1.2764,-1.2768,-1.2773,-1.2817,-1.2829,-1.2839,-1.2701,-1.27,-1.27,0,0,-1.2244,-1.2272,-1.2329,-1.2359,-1.2404,-1.242,-1.2434,-1.2478,-1.2492,-1.2563,-1.2559,-1.2605,-1.2691,-1.2723,-1.2751,-1.2841,-1.2837,-1.2857,-1.2898,-1.2942,-1.2952,-1.2961,-1.2993,-1.3005,-1.2864,-1.2865,-1.2865,0,-1.2274,-1.2349,-1.236,-1.2415,-1.2444,-1.244,-1.2499,-1.2528,-1.2586,-1.2607,-1.259,-1.2698,-1.2728,-1.2814,-1.2835,-1.2858,-1.2875,-1.2852,-1.2949,-1.2958,-1.2967,-1.2998,-1.301,-1.2867,-1.2866,-1.2866,-1.2866,0,-1.2385,-1.2437,-1.2478,-1.2533,-1.2568,-1.2625,-1.2645,-1.2678,-1.2682,-1.27,-1.2772,-1.2807,-1.2863,-1.2884,-1.2888,-1.297,-1.2959,-1.2946,-1.2916,-1.2981,-1.301,-1.3022,-1.287,-1.2869,-1.2868,-1.2868,0,0,-1.2481,-1.254,-1.2555,-1.258,-1.2629,-1.267,-1.2726,-1.2779,-1.2808,-1.2849,-1.2897,-1.297,-1.2957,-1.2988,-1.2996,-1.3035,-1.3104,-1.3017,-1.3018,-1.3032,-1.3197,-1.3207,-1.3221,-1.3101,-1.3103,-1.3105,-1.3193,0,-1.2565,-1.2664,-1.2674,-1.2763,-1.2812,-1.2807,-1.2857,-1.2892,-1.2911,-1.2955,-1.2976,-1.3027,-1.3007,-1.3026,-1.3064,-1.3088,-1.3138,-1.3081,-1.3147,-1.3149,-1.3136,-1.3236,-1.3247,-1.3329,-1.3205,-1.3207,-1.3208,0,-1.2676,-1.2718,-1.2811,-1.2853,-1.2873,-1.2917,-1.2967,-1.3009,-1.3049,-1.306,-1.3095,-1.3097,-1.3157,-1.3123,-1.3205,-1.3167,-1.3194,-1.321,-1.3214,-1.3221,-1.3183,-1.3247,-1.3355,-1.3367,-1.3226,-1.3225,-1.3224,0,-1.2737,-1.2817,-1.2883,-1.2905,-1.2954,-1.2985,-1.3008,-1.3046,-1.3077,-1.312,-1.3141,-1.3191,-1.3218,-1.3257,-1.3274,-1.3248,-1.3355,-1.3323,-1.3366,-1.3366,-1.339,-1.3388,-1.3505,-1.3407,-1.3407,-1.3406,-1.3406,0,-1.283,-1.2887,-1.2911,-1.2952,-1.3016,-1.3028,-1.3092,-1.3113,-1.3147,-1.3192,-1.3192,-1.3235,-1.3253,-1.3299,-1.3312,-1.3379,-1.3391,-1.3402,-1.3405,-1.3402,-1.3401,-1.3421,-1.3416,-1.341,-1.3409,-1.3408,-1.3408,0,-1.2909,-1.2927,-1.2999,-1.304,-1.3051,-1.3097,-1.3132,-1.3172,-1.3189,-1.3247,-1.3261,-1.3289,-1.3343,-1.3363,-1.3429,-1.3438,-1.3514,-1.3513,-1.3501,-1.3501,-1.3544,-1.354,-1.3677,-1.3696,-1.3585,-1.3586,-1.3587,0,-1.2968,-1.3011,-1.3056,-1.3086,-1.3109,-1.3157,-1.3188,-1.3202,-1.3235,-1.3283,-1.3318,-1.3371,-1.3414,-1.3501,-1.3528,-1.3578,-1.3578,-1.3623,-1.3586,-1.3581,-1.3579,-1.3576,-1.3581,-1.363,-1.3631,-1.3632,-1.3633,0,-1.3069,-1.3076,-1.312,-1.3168,-1.3205,-1.3243,-1.328,-1.3305,-1.3324,-1.3361,-1.3416,-1.3449,-1.3516,-1.3569,-1.3621,-1.3645,-1.3643,-1.3644,-1.3657,-1.3655,-1.3646,-1.3652,-1.352,-1.3641,-1.364,-1.3639,-1.3639,-1.3639,-1.314,-1.3179,-1.3216,-1.3266,-1.3295,-1.333,-1.3369,-1.339,-1.3436,-1.349,-1.3496,-1.3554,-1.3594,-1.3662,-1.3689,-1.3735,-1.3723,-1.3742,-1.3747,-1.3751,-1.3754,-1.3638,-1.3745,-1.3745,-1.3744,-1.3744,-1.3744,0,-1.3242,-1.3266,-1.3311,-1.3363,-1.3402,-1.3394,-1.3435,-1.3468,-1.352,-1.3556,-1.3598,-1.3661,-1.3712,-1.3742,-1.3794,-1.3825,-1.3826,-1.3839,-1.3837,-1.3842,-1.3762,-1.3746,-1.3837,-1.3837,-1.3837,-1.3837,-1.3837,-1.3837,-1.33,-1.3365,-1.3376,-1.3455,-1.3479,-1.3535,-1.3559,-1.3591,-1.362,-1.369,-1.3732,-1.375,-1.3785,-1.3838,-1.3885,-1.3893,-1.3912,-1.3927,-1.3933,-1.3858,-1.3848,-1.3839,-1.3824,-1.393,-1.3931,-1.401,-1.4011,-1.4011]},{"header":{"parameterUnit":"m.s-1","parameterCategory":1,"la1":30.2991,"la2":30.254,"lo1":-89.0895,"lo2":-89.0444,"dy":0.0017,"dx":0.0017,"nx":28,"ny":28,"refTime":"2024-02-15T09:00:00:Z","depth":0,"parameterNumber":3,"parameterNumberName":"V-component_of_WINDS"},"data":[0,0,0,0,0,0,0,0,0,0,0,0,0,0,0,0,0,0,0,0,0,0,0,0,0,0,0,0,0,0,0,0,0,0,0,0,0,0,0,0,0,0,0,0,0,0,0,0,0,0,0,0,0,0,0,0,0,0,-0.8529,-0.8529,0,-0.8583,-0.8584,-0.8585,-0.8568,-0.8567,-0.8566,-0.8565,-0.862,-0.8623,-0.8625,0,0,0,0,0,0,0,0,0,0,0,0,0,-0.841,-0.8412,-0.8529,-0.853,-0.853,-0.8583,-0.8584,-0.8585,-0.8569,-0.8567,-0.8566,-0.8565,-0.8619,-0.8622,-0.8625,0,0,0,0,0,0,0,0,0,0,0,0,0,-0.8463,-0.8413,-0.8529,-0.8529,-0.8529,-0.8583,-0.8584,-0.8585,-0.8569,-0.8567,-0.8566,-0.8564,-0.8618,-0.8622,-0.8626,-0.8683,0,0,-0.8637,-0.8639,0,0,0,0,0,0,0,0,-0.846,-0.8467,-0.8528,-0.8529,-0.8529,-0.8567,-0.8562,-0.8618,-0.8569,-0.8554,-0.8565,-0.8563,-0.8604,-0.8609,-0.8623,-0.8686,-0.8688,-0.8638,-0.864,-0.8642,-0.8643,0,0,0,0,0,0,0,-0.8456,-0.8465,-0.855,-0.8529,-0.853,-0.8525,-0.8531,-0.8573,-0.8588,-0.8555,-0.8554,-0.8561,-0.8604,-0.8619,-0.8624,-0.8689,-0.8638,-0.8641,-0.8643,-0.8645,-0.8801,-0.8802,0,0,0,0,0,0,-0.8452,-0.8462,-0.8549,-0.8552,-0.849,-0.8529,-0.8535,-0.8557,-0.8587,-0.859,-0.8562,-0.856,-0.8613,-0.8619,-0.8626,-0.8695,-0.8642,-0.8645,-0.8647,-0.8799,-0.8801,-0.8803,0,0,0,0,0,0,-0.845,-0.846,-0.8546,-0.8507,-0.8517,-0.8533,-0.8557,-0.8559,-0.8574,-0.8593,-0.8595,-0.8575,-0.8612,-0.862,-0.8669,-0.8696,-0.8647,-0.865,-0.8796,-0.8799,-0.8802,-0.8833,0,0,0,0,0,0,-0.8446,-0.8459,-0.8481,-0.8507,-0.852,-0.8589,-0.8559,-0.8561,-0.8581,-0.8578,-0.8605,-0.8608,-0.8612,-0.8663,-0.8673,-0.8701,-0.8653,-0.8794,-0.8798,-0.8801,-0.8829,-0.8836,-0.8842,0,0,0,0,0,-0.8442,-0.8488,-0.8483,-0.8493,-0.8548,-0.8591,-0.8598,-0.8601,-0.8583,-0.8605,-0.8617,-0.8607,-0.8692,-0.8668,-0.8679,-0.8708,-0.8792,-0.8797,-0.8801,-0.8827,-0.8835,-0.8842,0,0,0,0,0,0,-0.8465,-0.8491,-0.8486,-0.8541,-0.8564,-0.8588,-0.8616,-0.861,-0.8638,-0.8635,-0.8637,-0.8644,-0.8693,-0.8705,-0.8679,-0.8765,-0.8739,-0.8746,-0.8755,-0.8763,-0.877,-0.8766,-0.8656,0,0,0,0,0,-0.8476,-0.8509,-0.853,-0.8577,-0.8589,-0.8601,-0.862,-0.862,-0.8644,-0.8653,-0.8668,-0.8691,-0.8723,-0.8744,-0.8774,-0.8831,-0.8836,-0.8856,-0.8863,-0.8868,-0.8873,-0.8904,-0.8913,-0.8817,-0.8817,-0.8817,0,0,-0.85,-0.8519,-0.854,-0.8582,-0.86,-0.8634,-0.8609,-0.8646,-0.8671,-0.8659,-0.8705,-0.8717,-0.8743,-0.8796,-0.882,-0.8807,-0.8901,-0.8873,-0.8877,-0.888,-0.891,-0.8919,-0.8927,-0.882,-0.8819,-0.8819,0,0,-0.8562,-0.8579,-0.862,-0.8638,-0.8665,-0.8672,-0.8682,-0.8707,-0.8714,-0.8761,-0.8753,-0.8782,-0.8837,-0.8855,-0.8872,-0.8939,-0.8931,-0.8949,-0.8983,-0.9013,-0.902,-0.9027,-0.9051,-0.906,-0.8955,-0.8955,-0.8955,0,-0.8588,-0.8639,-0.8642,-0.868,-0.8699,-0.8689,-0.873,-0.8747,-0.8783,-0.8796,-0.8781,-0.8849,-0.8866,-0.8923,-0.8939,-0.8953,-0.8964,-0.8946,-0.9019,-0.9026,-0.9032,-0.9055,-0.9064,-0.8957,-0.8956,-0.8956,-0.8956,0,-0.8671,-0.8706,-0.8736,-0.877,-0.8792,-0.8832,-0.884,-0.8862,-0.8861,-0.8869,-0.8917,-0.8936,-0.897,-0.8983,-0.8982,-0.904,-0.9032,-0.9018,-0.8993,-0.9043,-0.9065,-0.9074,-0.896,-0.8959,-0.8958,-0.8958,0,0,-0.8749,-0.8783,-0.8794,-0.881,-0.8838,-0.8866,-0.8904,-0.8937,-0.8956,-0.8981,-0.9013,-0.9059,-0.9047,-0.9065,-0.9066,-0.9092,-0.9145,-0.9076,-0.9076,-0.9088,-0.9209,-0.922,-0.923,-0.9139,-0.9141,-0.9142,-0.9207,0,-0.8813,-0.8881,-0.8884,-0.8946,-0.8979,-0.8969,-0.9003,-0.9024,-0.9033,-0.9061,-0.9071,-0.9104,-0.9085,-0.9096,-0.9122,-0.9133,-0.9169,-0.9128,-0.9169,-0.9171,-0.9164,-0.9241,-0.9253,-0.9313,-0.9216,-0.9217,-0.9218,0,-0.8897,-0.8924,-0.8989,-0.9013,-0.9027,-0.9057,-0.9087,-0.9115,-0.9138,-0.9143,-0.9163,-0.916,-0.9199,-0.9171,-0.9225,-0.9197,-0.9214,-0.9222,-0.9224,-0.9229,-0.9198,-0.9248,-0.9333,-0.9342,-0.9232,-0.9231,-0.923,0,-0.8947,-0.9,-0.9046,-0.9059,-0.9088,-0.9109,-0.9122,-0.9144,-0.9163,-0.919,-0.9202,-0.9233,-0.925,-0.9273,-0.9278,-0.9257,-0.9331,-0.9304,-0.9336,-0.9336,-0.9353,-0.9352,-0.9442,-0.9363,-0.9363,-0.9363,-0.9362,0,-0.9019,-0.9059,-0.9069,-0.9098,-0.9142,-0.9145,-0.9189,-0.92,-0.922,-0.925,-0.9243,-0.9271,-0.9276,-0.9305,-0.9309,-0.9352,-0.936,-0.9364,-0.9365,-0.9365,-0.9365,-0.9377,-0.9373,-0.9365,-0.9364,-0.9364,-0.9364,0,-0.9083,-0.9092,-0.9141,-0.9164,-0.9171,-0.9203,-0.9222,-0.9249,-0.9257,-0.9295,-0.9304,-0.9316,-0.935,-0.9357,-0.9397,-0.9399,-0.9451,-0.9448,-0.9444,-0.9444,-0.9475,-0.9472,-0.9576,-0.959,-0.9502,-0.9503,-0.9503,0,-0.9129,-0.916,-0.9186,-0.9206,-0.9219,-0.9251,-0.9271,-0.9275,-0.9296,-0.9324,-0.9348,-0.9381,-0.9408,-0.9462,-0.9474,-0.9505,-0.9502,-0.9536,-0.9506,-0.9505,-0.9503,-0.9501,-0.9504,-0.9542,-0.9543,-0.9544,-0.9544,0,-0.9208,-0.9211,-0.924,-0.9271,-0.9295,-0.9319,-0.9342,-0.9358,-0.9365,-0.9388,-0.9423,-0.9444,-0.9485,-0.9518,-0.9548,-0.956,-0.9554,-0.9553,-0.9562,-0.9563,-0.956,-0.9563,-0.946,-0.9551,-0.955,-0.955,-0.955,-0.9549,-0.9265,-0.9292,-0.9315,-0.9347,-0.9365,-0.9386,-0.9413,-0.9424,-0.9453,-0.9487,-0.9487,-0.9524,-0.9546,-0.9586,-0.9601,-0.963,-0.9619,-0.9632,-0.9635,-0.9639,-0.9642,-0.9555,-0.9635,-0.9635,-0.9635,-0.9635,-0.9635,0,-0.9345,-0.9359,-0.9389,-0.9421,-0.9447,-0.9438,-0.9462,-0.9484,-0.9518,-0.9539,-0.9565,-0.9605,-0.9636,-0.9651,-0.9682,-0.9703,-0.97,-0.9711,-0.971,-0.9713,-0.965,-0.9639,-0.9712,-0.9712,-0.9712,-0.9712,-0.9712,-0.9712,-0.9389,-0.9435,-0.944,-0.9493,-0.9507,-0.9544,-0.9559,-0.9579,-0.9595,-0.964,-0.9666,-0.9675,-0.9694,-0.9726,-0.9754,-0.9758,-0.977,-0.9782,-0.9784,-0.9725,-0.9717,-0.971,-0.9699,-0.9784,-0.9784,-0.9844,-0.9845,-0.9845]}]]